Wind_Speed
6 5 4 4 4 5 4 3 2 2 3 4 5 4 4 6 7 8 9 11 13 13 13 13 12 11 9 10 11 11 11 11 11 10 11 11 10 10 11 11 12 12 13 12 12 12 12 12 12 13 15 15 16 17 18 19 21 21 21 22 23 24 25 25 25 24 22 19 16 15 15 15 14 14 13 13 14 15 16 16 17 17 17 16 16 15
5 4 5 6 6 6 4 3 2 2 3 4 4 5 6 6 6 8 11 12 13 12 13 12 13 15 12 13 15 13 12 14 14 13 13 13 12 12 13 13 12 13 13 12 13 14 15 14 14 15 16 17 18 18 18 19 20 20 21 21 22 24 26 25 25 24 23 20 18 16 15 14 14 13 13 12 13 14 15 17 17 17 17 17 17 16
4 5 6 6 6 5 3 1 1 1 2 3 4 4 6 5 4 8 12 13 13 12 12 11 14 17 15 15 15 14 14 15 17 16 15 15 15 14 14 14 13 13 13 12 12 14 15 16 16 17 18 19 20 20 19 19 20 20 21 21 22 24 25 25 24 23 23 21 19 18 15 13 12 12 12 12 12 13 14 16 17 17 17 17 17 17
5 6 5 4 4 3 2 2 1 3 3 3 4 5 3 4 4 5 8 12 13 13 12 11 13 16 15 16 16 15 16 15 15 17 17 16 15 15 16 15 14 13 13 12 13 14 16 18 19 19 19 20 20 20 20 20 20 20 20 20 21 23 24 24 23 22 21 20 18 17 14 12 12 11 11 12 13 14 14 15 16 16 17 16 16 17
6 6 5 4 3 2 1 2 1 4 4 1 3 4 0 3 4 3 4 9 11 13 13 10 12 14 14 17 17 16 17 16 16 17 18 17 17 18 18 17 15 14 14 14 15 16 18 20 20 19 19 19 20 20 20 20 20 20 18 18 20 22 23 23 23 22 20 18 16 15 14 12 12 11 11 12 12 13 14 14 14 15 15 15 15 16
7 6 6 6 4 2 1 1 1 3 3 0 1 1 2 3 3 1 3 6 6 10 12 10 11 10 9 14 17 17 17 18 18 18 19 20 20 20 19 17 15 15 16 17 17 18 18 19 20 18 18 20 20 20 20 20 20 18 17 18 20 21 22 22 22 21 19 16 15 14 13 12 12 12 12 12 12 13 13 14 14 14 14 14 14 14
6 4 5 5 3 2 1 2 1 1 4 1 3 1 1 1 1 2 3 6 6 6 6 8 10 9 10 12 14 14 14 15 18 17 18 21 20 19 19 16 15 15 15 16 17 18 17 19 20 19 20 21 20 19 20 20 18 16 16 17 19 20 21 21 20 19 17 15 14 14 13 12 11 12 12 12 12 12 13 13 14 13 13 13 13 13
6 5 5 4 2 2 2 4 1 2 4 3 1 1 1 1 4 4 5 9 8 6 6 8 9 11 13 9 8 9 10 12 15 16 18 20 19 18 17 16 16 16 14 14 16 18 18 18 18 18 20 21 20 18 19 19 16 15 16 17 19 19 20 20 19 18 16 15 13 13 12 11 11 11 12 12 12 12 13 13 14 13 13 13 13 13
6 5 4 4 4 3 3 3 2 1 3 4 3 4 4 4 6 5 8 10 6 7 10 7 7 10 11 5 3 7 8 10 13 15 16 16 16 16 15 16 16 15 14 14 17 18 18 18 18 18 21 20 18 19 19 17 15 15 16 17 18 19 19 19 19 17 16 15 14 13 12 11 11 11 12 12 12 12 13 13 13 13 13 12 13 13
5 3 3 3 4 4 4 4 4 2 3 6 6 6 6 7 6 6 8 7 5 8 7 4 4 8 8 4 3 5 6 7 9 13 13 11 12 13 14 15 14 13 14 15 17 18 18 19 19 19 20 17 16 19 18 15 14 15 15 16 17 18 19 19 19 18 17 16 14 13 12 11 11 11 12 12 12 13 13 13 13 13 13 13 13 13
4 2 2 3 4 5 5 5 6 5 5 6 6 6 7 7 6 7 7 5 7 6 1 3 3 7 8 4 1 2 5 6 6 9 9 10 11 11 11 10 10 11 13 14 15 17 18 18 18 19 18 16 16 18 16 14 14 14 14 15 16 17 18 19 19 18 17 17 15 14 13 12 11 11 12 12 12 12 13 13 13 13 14 13 14 14
4 3 3 3 4 6 6 4 5 6 6 6 5 5 7 7 6 7 6 5 6 2 4 2 1 5 7 3 1 4 7 8 7 7 7 8 10 9 7 7 8 10 11 11 13 15 16 17 17 18 17 16 16 15 14 14 14 14 13 14 15 16 17 18 19 19 18 18 16 15 13 12 11 11 11 12 12 12 12 13 13 13 14 14 14 14
4 4 3 3 3 5 6 4 3 5 8 6 4 5 7 5 3 4 4 4 5 1 3 1 1 5 6 2 3 8 8 8 8 7 5 6 8 6 6 6 7 7 8 9 11 13 15 16 17 16 16 16 16 14 13 13 14 13 13 14 14 14 16 17 19 19 19 19 17 16 14 13 12 11 11 11 11 12 12 12 13 14 14 14 15 15
4 2 3 3 3 4 7 7 5 5 7 7 5 5 6 4 2 3 3 3 4 1 2 1 3 6 4 0 4 7 5 5 6 6 5 5 5 4 4 5 5 6 8 9 11 12 14 16 16 16 16 16 15 13 13 13 13 13 13 13 13 13 15 17 19 19 20 19 18 16 15 14 13 11 12 11 11 11 12 12 13 14 14 14 15 15
1 2 3 2 2 4 6 7 7 6 5 6 6 5 5 5 4 4 4 5 5 4 2 2 4 5 4 4 6 6 4 3 4 5 5 5 4 4 4 4 5 6 9 10 11 12 13 14 14 14 14 14 13 12 12 13 13 13 13 13 12 13 15 17 18 19 20 20 19 17 16 15 14 12 12 12 12 12 12 13 14 14 14 14 14 15
1 2 2 1 1 3 5 7 8 5 3 4 4 4 4 4 4 5 5 5 7 8 4 2 4 4 5 6 5 3 2 2 3 4 4 4 4 4 4 4 5 7 9 11 11 11 11 11 11 11 12 12 12 12 12 12 13 13 13 12 11 12 14 16 18 19 20 19 19 17 16 15 14 13 13 13 13 13 12 13 14 15 15 15 14 14
1 2 1 2 2 4 5 7 8 6 3 4 4 3 3 3 3 5 5 3 5 6 2 2 5 4 3 2 1 1 2 2 3 4 4 6 6 5 5 4 5 7 9 12 12 11 10 9 9 9 10 11 12 11 12 13 13 13 13 12 11 12 14 16 18 19 19 19 18 17 15 14 14 13 13 13 13 13 13 14 14 15 15 16 15 15
2 4 2 0 2 5 7 6 7 7 5 4 4 3 3 3 2 3 4 3 4 5 2 3 6 6 4 1 2 1 2 3 3 3 5 7 6 5 6 6 6 8 10 12 12 11 10 9 9 8 9 10 10 11 12 13 13 13 13 12 11 12 13 16 18 19 19 19 18 17 15 14 13 13 13 13 13 13 13 14 15 15 15 16 16 15
4 4 2 1 2 5 5 4 3 6 7 5 4 3 3 3 2 2 4 4 5 5 3 3 5 5 4 2 2 1 1 3 4 4 5 6 6 5 7 8 9 9 10 11 11 11 10 10 10 9 9 9 10 11 13 13 13 13 13 12 12 12 14 16 18 19 20 20 18 17 15 14 14 14 13 13 13 13 14 15 16 17 17 16 15 16
3 2 2 1 1 1 3 2 1 4 7 7 5 4 4 3 4 4 4 5 6 5 4 5 5 4 3 4 4 4 4 5 6 6 6 6 7 7 8 10 10 11 11 12 12 11 10 10 11 11 11 11 12 13 13 13 13 12 12 12 12 13 14 16 18 19 20 20 19 18 17 15 16 15 14 14 14 14 14 15 16 17 17 15 15 16
3 0 1 2 1 3 2 1 1 1 3 6 5 4 4 4 5 4 2 3 6 5 5 5 5 4 3 4 5 4 5 6 7 8 9 8 8 9 11 12 12 13 13 13 13 12 12 12 12 12 13 13 13 14 13 13 12 13 13 13 13 13 15 16 18 19 20 20 19 19 18 17 17 17 16 15 15 16 16 16 16 16 15 15 16 16
1 0 0 1 2 3 2 2 2 2 2 3 3 3 5 4 5 5 2 1 4 6 5 6 7 5 3 5 6 4 5 6 7 10 11 11 12 13 15 16 15 15 15 14 15 14 13 13 13 14 14 14 14 14 14 12 12 12 13 13 13 14 15 16 18 19 20 19 19 19 19 18 17 17 17 16 16 17 17 17 17 15 15 17 18 15
2 1 1 2 3 3 2 3 2 1 2 3 3 3 3 3 4 6 4 4 5 6 5 6 6 3 3 8 10 6 6 8 10 12 14 15 16 17 19 19 18 16 15 15 15 15 15 14 15 15 15 15 15 15 13 12 11 12 12 13 14 14 15 17 18 19 19 19 19 19 20 19 17 17 17 17 17 17 17 18 18 17 18 18 17 14
3 1 2 3 4 3 2 2 1 3 3 3 4 4 3 2 3 4 5 6 7 6 6 6 5 2 5 12 12 8 9 11 11 14 16 17 16 15 17 18 17 16 15 15 15 16 15 14 13 14 15 16 15 14 13 11 12 12 12 13 14 15 16 17 18 19 19 18 19 19 19 18 17 16 16 16 17 17 17 17 17 17 17 16 15 13
1 1 3 4 5 4 3 2 1 3 4 2 3 4 3 2 3 3 3 4 6 5 4 7 6 4 7 13 12 9 10 12 12 14 16 15 13 11 11 11 11 13 14 15 15 15 14 12 12 12 13 14 14 13 13 12 12 12 13 14 15 16 17 18 18 19 19 18 19 19 19 18 17 16 15 16 16 16 16 15 15 15 14 13 12 10
2 1 2 2 2 2 1 0 0 1 2 2 4 5 5 4 4 4 4 5 5 4 5 8 9 9 10 11 10 9 11 12 11 11 11 11 10 8 7 6 6 8 11 12 13 14 12 11 11 11 11 12 12 13 13 13 13 13 14 15 16 17 17 18 18 18 18 18 18 19 19 17 16 16 15 15 15 15 14 12 12 13 11 10 9 8
4 3 1 2 3 3 3 3 1 1 2 3 4 5 5 6 6 5 6 6 6 7 8 8 9 13 14 12 11 11 11 10 10 10 9 8 8 7 6 5 5 7 9 11 12 13 12 12 12 11 11 12 12 13 13 14 14 14 14 15 16 17 18 18 18 18 18 18 18 19 18 17 16 15 15 15 14 14 12 10 11 12 10 8 8 7
3 1 2 3 2 2 2 1 1 1 2 4 5 5 6 7 8 7 7 7 8 9 8 7 10 15 15 12 11 11 10 9 9 10 10 8 7 6 6 5 6 8 10 11 12 13 13 13 13 13 13 13 13 14 14 15 15 14 14 15 16 17 18 18 18 18 18 18 18 18 17 16 15 14 14 15 14 13 11 9 9 11 9 6 6 6
3 2 3 3 1 0 1 1 2 4 5 5 5 7 8 8 7 7 6 7 8 10 10 12 15 16 13 11 9 10 11 11 10 11 11 9 7 7 7 7 8 9 10 10 13 14 14 14 16 16 15 15 15 15 15 15 15 15 15 15 16 17 18 18 18 18 18 18 18 18 17 16 14 13 13 14 12 11 10 8 8 9 7 5 5 6
3 2 4 4 3 3 2 3 4 6 8 6 5 5 6 6 5 6 7 8 10 12 12 14 15 14 11 9 8 10 12 12 11 11 10 9 8 7 8 9 10 10 11 12 15 15 14 14 14 14 14 15 15 16 16 16 16 15 15 15 16 17 18 18 18 18 17 17 17 17 16 15 13 12 12 13 12 10 8 8 8 7 7 5 5 6
3 4 6 4 4 5 4 5 6 8 8 5 3 3 2 4 6 7 8 8 9 11 11 11 13 11 9 9 10 12 13 13 12 11 10 9 9 8 9 9 11 12 13 14 15 15 14 12 11 11 13 14 16 16 16 16 15 15 15 15 16 17 18 18 17 17 17 17 17 16 16 15 13 11 11 11 11 9 8 7 7 7 6 6 6 6
3 4 4 3 4 4 4 6 7 8 8 5 3 4 4 4 6 7 7 7 8 9 9 9 10 10 11 13 13 12 13 13 13 12 11 10 10 10 11 12 13 14 14 14 14 14 13 12 12 13 15 17 17 17 17 16 15 14 15 16 16 17 18 17 17 17 17 17 16 15 15 14 12 12 11 11 10 9 8 8 8 7 6 6 7 7
5 4 3 3 3 3 4 6 7 8 7 4 2 4 4 4 6 6 7 7 8 8 7 8 9 11 13 15 14 13 13 14 14 14 13 13 12 12 13 13 13 13 13 13 14 14 14 14 15 16 17 17 17 17 16 15 14 14 15 15 16 17 17 17 16 16 16 16 15 14 14 13 12 12 12 11 10 8 7 7 8 8 8 7 7 7
6 5 4 4 4 3 4 7 9 7 4 1 4 6 6 4 6 5 5 6 8 9 9 9 9 10 12 14 15 16 15 14 14 14 14 14 13 12 13 13 12 11 12 13 14 14 15 15 15 16 16 16 16 16 15 14 14 14 14 15 16 16 17 16 16 15 15 15 14 13 13 12 11 12 12 12 10 9 8 7 8 9 9 8 7 7
7 6 5 6 5 5 6 7 6 2 2 6 9 6 4 4 6 5 5 6 8 11 10 9 8 10 12 14 15 14 12 12 12 13 13 13 13 13 14 13 11 10 11 13 14 15 15 14 14 15 15 15 15 15 15 14 13 14 14 15 16 16 16 16 15 15 15 14 13 12 11 11 11 12 13 12 11 10 9 8 8 9 9 8 8 7
7 7 7 6 6 6 6 5 4 4 6 7 6 3 3 5 6 7 6 6 8 10 9 7 8 11 12 13 12 10 9 9 10 11 12 11 11 13 14 13 11 11 11 13 14 15 15 15 15 16 16 16 16 16 16 15 14 14 14 15 15 15 15 15 14 15 14 14 13 11 10 10 11 12 13 13 12 11 10 10 9 9 10 10 9 8
8 8 8 7 7 6 6 6 7 8 6 3 2 3 4 5 7 8 8 8 8 9 8 7 9 10 11 11 10 9 8 8 9 10 11 10 10 12 13 12 12 12 12 13 14 15 16 17 17 17 17 17 16 16 16 15 15 14 14 14 15 14 14 14 14 14 14 14 13 11 9 9 9 10 11 11 11 11 11 11 10 10 11 11 11 10
9 9 9 8 8 8 7 8 8 6 2 3 3 7 8 9 10 10 11 10 7 7 9 10 9 9 9 9 9 9 9 9 8 9 12 11 11 12 12 12 11 11 12 13 13 14 16 17 17 17 17 17 16 15 15 16 16 15 15 14 15 14 14 14 14 14 14 14 13 11 9 8 9 9 10 10 11 10 11 11 11 11 11 12 12 11
10 10 11 11 10 9 8 7 7 5 3 4 6 10 12 11 11 11 11 7 8 9 13 12 10 10 8 8 8 9 9 9 7 10 14 12 11 12 13 13 12 11 12 12 12 13 15 16 18 18 18 17 16 16 16 16 16 16 15 15 15 15 14 14 14 14 14 14 13 11 9 8 8 9 9 10 11 10 10 11 11 12 12 12 11 11
12 12 13 13 11 10 10 9 9 8 8 9 10 11 11 10 10 9 6 3 8 13 15 12 11 11 9 9 10 9 8 9 10 13 15 14 13 14 14 13 13 13 12 13 13 15 17 18 19 19 19 18 17 17 17 16 16 16 16 15 15 15 15 15 14 14 14 13 12 11 10 9 9 9 9 10 10 10 9 10 10 11 12 12 11 11
13 14 14 13 12 11 11 11 11 11 11 11 10 9 8 8 8 6 4 5 11 15 14 12 12 12 10 11 11 9 9 12 13 15 16 16 15 15 15 15 14 14 14 15 17 19 20 20 19 19 19 19 18 17 17 17 17 17 17 16 15 15 15 15 15 14 14 14 13 11 10 9 9 9 9 10 10 9 8 8 9 9 10 11 11 11
12 13 13 15 13 11 11 11 12 12 10 7 6 8 8 5 5 6 9 12 14 14 14 14 14 13 12 12 12 12 13 14 15 15 16 16 16 16 17 17 16 16 17 18 20 21 21 20 18 17 18 19 19 18 18 18 18 18 18 17 16 16 16 15 15 15 14 14 13 12 11 10 10 10 10 10 10 9 8 7 8 8 8 9 10 10
11 11 10 13 13 10 10 11 9 8 8 8 9 11 9 6 7 10 13 14 14 13 14 15 15 14 14 13 14 15 15 15 15 15 16 16 17 17 16 16 17 17 17 18 19 19 19 18 17 16 17 18 19 18 18 18 18 18 19 18 17 16 16 16 16 15 15 14 14 13 12 11 10 10 10 10 9 9 7 7 7 7 8 8 8 9
12 12 10 10 11 10 9 10 8 9 12 13 12 12 12 11 11 13 13 12 13 15 15 15 15 16 16 15 15 17 17 16 16 15 16 16 16 16 15 15 15 16 16 16 17 18 18 18 17 16 16 17 18 18 17 18 18 19 19 19 17 16 16 16 16 16 15 14 14 13 12 11 11 11 11 10 9 8 7 6 6 7 7 7 7 7
13 13 11 11 13 14 12 12 13 15 16 15 12 12 14 13 13 14 13 12 13 15 16 16 16 16 17 16 17 17 17 17 16 14 13 14 14 14 14 14 14 15 16 16 17 18 18 17 16 16 16 16 18 18 18 18 18 19 19 19 18 16 16 16 16 16 15 14 14 13 13 12 11 12 12 11 9 8 7 6 5 6 6 7 6 6
15 15 13 12 15 18 17 15 15 16 15 15 14 14 14 13 13 14 15 14 13 15 17 17 16 16 16 17 17 18 17 17 15 13 12 13 13 13 14 14 15 16 16 17 17 18 17 17 16 16 16 16 17 18 19 19 18 18 19 20 18 17 17 17 16 16 15 15 14 13 13 12 12 12 12 12 10 7 6 6 4 4 5 6 6 6
18 17 16 17 18 20 18 16 14 15 16 17 17 14 13 14 14 14 15 15 15 16 17 17 16 16 16 16 17 18 17 16 15 14 14 15 15 15 16 16 16 17 17 17 18 19 18 17 16 16 16 16 17 18 19 20 19 18 19 21 19 18 18 18 17 15 15 15 14 13 13 12 12 11 12 12 11 7 6 6 5 3 4 4 4 4
16 16 17 19 20 20 19 18 17 17 18 19 17 15 14 15 15 15 15 15 16 16 16 16 16 16 16 16 16 17 17 16 15 15 16 17 17 17 17 17 17 17 18 18 18 19 19 18 17 16 16 16 17 18 19 20 20 19 19 21 21 19 18 18 17 16 15 14 13 13 13 12 11 11 12 12 12 9 6 5 5 3 2 2 3 3
19 19 19 21 21 21 21 20 18 17 18 18 18 16 16 16 16 16 15 16 16 17 16 16 16 16 15 15 16 16 16 16 17 17 18 19 19 19 19 18 18 18 18 18 19 19 20 20 19 17 16 17 18 18 19 19 20 20 19 21 22 20 19 18 18 16 15 14 13 13 13 12 11 11 11 12 12 10 7 5 5 4 2 1 1 1
23 22 23 24 23 22 20 19 17 17 16 18 19 19 17 17 17 17 16 16 17 17 17 16 16 15 15 15 15 17 17 18 19 20 20 20 21 20 19 19 19 19 19 19 19 19 20 20 20 19 18 17 18 19 19 19 20 20 20 21 22 22 20 19 18 17 15 15 14 13 12 12 12 11 11 11 12 12 9 6 5 5 4 3 3 3
25 23 24 25 23 21 19 18 19 21 20 21 23 22 19 17 17 18 17 17 18 18 18 17 16 15 15 15 15 17 18 19 20 21 22 22 21 20 20 19 19 18 19 19 19 20 20 20 19 19 18 18 18 19 19 20 20 20 21 21 22 22 22 21 20 19 17 16 15 13 12 12 12 11 11 11 12 12 11 7 6 6 6 4 4 4
Wind_Direction
148 140 145 132 144 169 187 202 234 231 207 219 233 240 238 228 228 217 213 216 207 213 226 227 236 237 235 252 244 230 232 233 227 216 211 212 213 219 226 232 239 248 253 255 260 265 270 279 287 294 299 303 304 307 310 309 313 314 310 312 314 311 312 316 319 322 323 320 315 310 303 296 291 285 277 266 259 259 259 259 257 256 257 256 252 248
154 129 125 121 131 142 146 155 142 159 200 218 236 255 246 234 229 211 215 223 210 217 233 231 242 243 235 248 256 251 244 241 237 230 224 220 217 221 230 237 240 245 251 255 263 270 275 279 282 288 296 301 304 307 308 310 313 310 309 314 312 310 312 315 320 324 324 323 319 314 306 296 290 285 278 268 259 258 259 259 258 257 257 257 255 251
147 118 125 129 132 127 107 105 141 176 224 240 246 257 244 224 221 213 217 225 214 218 238 237 243 248 242 245 252 255 255 246 237 235 233 227 224 227 233 239 241 244 248 252 263 273 278 280 282 286 293 298 302 305 307 310 311 308 310 313 309 308 311 316 322 324 324 322 320 317 309 297 288 284 279 272 266 262 259 257 257 257 257 258 259 257
129 115 125 132 129 114 55 20 257 243 259 270 267 267 233 188 224 237 225 226 217 218 235 239 246 252 248 248 247 243 248 250 242 239 237 232 230 233 236 238 242 248 253 257 264 271 278 281 282 284 290 297 302 304 305 309 309 306 309 309 305 307 311 317 322 323 323 321 319 317 313 302 291 283 278 275 273 270 264 257 255 257 258 260 261 261
106 118 117 97 90 91 35 17 308 270 264 268 291 299 20 179 233 269 236 222 217 225 234 242 257 252 241 252 257 247 242 242 242 238 233 231 232 236 239 241 247 256 263 269 270 272 277 280 282 284 289 294 301 304 304 307 306 305 305 302 303 307 312 317 321 322 323 322 321 319 315 311 301 290 282 278 277 274 269 261 258 259 260 262 263 264
98 117 104 81 61 66 70 22 15 289 281 203 92 7 85 157 210 221 210 216 225 237 233 240 264 257 242 259 266 255 242 233 236 240 235 233 236 240 244 248 255 265 272 277 278 276 277 280 283 286 286 288 296 303 304 305 304 301 298 298 302 307 312 317 320 322 323 323 324 322 318 316 310 301 291 285 282 277 272 266 263 263 264 265 265 264
86 93 85 78 54 55 63 23 43 278 294 290 119 106 89 115 218 206 207 239 260 262 241 240 258 274 273 263 254 254 252 238 238 245 244 243 246 247 251 256 259 265 273 279 282 280 278 279 280 281 282 285 293 299 301 302 301 294 292 297 303 309 313 318 321 322 323 325 326 325 322 319 314 308 299 292 287 280 274 270 268 269 269 268 267 265
81 67 58 58 28 3 27 15 4 246 296 322 107 248 263 279 269 255 256 265 272 283 265 239 244 276 280 256 238 263 275 258 253 257 255 256 261 261 262 262 259 261 268 272 277 279 277 277 277 276 277 281 289 294 296 297 293 286 290 296 303 310 315 320 323 324 326 328 328 326 325 322 315 309 303 296 288 281 276 273 272 273 272 271 268 264
98 87 74 53 26 16 29 1 317 247 305 309 285 270 266 266 270 269 274 275 274 278 265 220 217 272 278 250 254 284 278 268 268 268 263 261 265 266 263 258 254 256 260 262 271 275 272 270 269 270 274 277 283 289 290 288 281 280 289 297 304 312 318 323 327 328 330 332 330 327 324 322 315 307 302 296 289 284 279 276 276 275 275 273 268 264
127 131 107 56 40 27 19 343 325 329 298 294 287 279 269 262 266 267 275 277 266 270 263 183 211 275 283 264 277 295 278 269 269 268 262 248 240 241 241 240 240 247 257 264 271 272 269 265 260 263 271 274 278 284 285 278 273 280 290 298 305 313 321 326 329 331 333 333 330 327 323 319 313 306 301 297 291 287 283 280 278 278 277 274 269 266
135 110 60 46 46 13 356 345 339 328 299 300 300 287 268 257 260 258 262 268 261 260 171 127 237 274 282 271 237 291 283 277 263 258 252 232 221 221 222 228 236 251 266 272 275 274 270 264 257 257 263 268 274 278 276 268 270 280 290 300 307 315 323 327 330 332 334 332 329 327 323 318 312 305 300 296 292 288 286 284 281 279 279 276 270 267
112 72 60 47 36 24 9 343 339 353 350 332 308 287 270 251 249 248 231 232 260 259 98 99 234 255 270 283 348 290 286 283 262 243 237 219 210 212 218 236 252 262 272 276 277 275 271 264 256 252 254 261 268 269 263 263 270 280 290 299 307 315 323 328 330 334 335 333 329 325 322 317 312 305 298 294 290 287 286 285 283 280 280 278 273 269
105 56 48 22 17 39 26 344 325 10 8 347 317 302 290 267 256 264 236 236 281 340 102 92 290 256 260 286 316 296 290 281 254 234 233 210 200 211 226 245 260 271 285 290 290 284 275 265 255 248 247 253 261 260 255 260 269 279 288 297 306 315 323 328 332 335 336 334 329 325 321 316 311 305 297 292 288 286 284 283 283 280 278 277 275 272
142 101 63 18 358 34 31 16 6 3 1 359 349 323 314 315 312 293 288 293 303 332 132 226 284 272 260 50 328 315 298 269 236 217 212 194 199 226 241 258 275 291 306 312 309 296 281 269 258 253 252 253 255 251 250 260 269 278 286 294 305 315 322 328 331 334 336 334 331 328 324 317 312 305 296 290 286 284 283 282 281 279 277 276 276 275
223 102 81 40 16 28 25 20 15 358 344 2 358 331 339 355 340 316 318 329 332 326 298 257 284 295 311 325 321 318 297 253 218 205 203 205 233 263 265 275 288 305 317 322 320 306 289 277 267 263 261 255 248 244 249 262 269 276 283 292 303 314 321 326 330 333 335 334 332 331 327 319 312 307 299 292 288 284 283 280 279 278 276 274 275 275
298 69 59 306 16 23 7 0 7 9 329 343 358 341 347 357 334 318 319 327 320 312 302 291 302 309 317 319 319 311 278 233 221 218 223 251 276 279 275 282 295 310 322 327 326 314 295 284 275 269 263 252 244 245 253 262 268 274 281 290 301 311 319 324 328 332 333 333 332 331 328 320 314 309 303 297 292 286 281 280 279 279 279 277 276 274
174 120 188 290 334 341 340 343 354 15 7 337 351 0 347 347 332 303 290 274 278 284 302 328 308 297 294 321 27 252 235 226 256 259 267 286 293 285 276 280 299 313 324 327 327 319 302 291 280 267 257 250 247 251 257 262 268 273 279 288 298 308 317 322 326 329 330 331 332 331 328 322 316 311 307 302 295 289 285 283 282 282 282 281 278 275
145 127 153 10 307 308 330 347 356 11 16 347 345 2 342 340 354 298 288 279 279 294 340 335 314 309 309 358 104 171 219 226 263 274 279 293 299 292 282 284 301 315 319 322 323 317 307 296 286 274 262 260 259 259 262 264 268 274 281 288 296 306 314 319 323 326 328 330 331 330 328 325 319 313 309 304 297 293 287 283 283 281 279 279 279 278
135 142 154 113 271 296 339 11 14 5 11 19 20 25 359 329 335 322 308 311 310 313 328 325 318 317 329 18 49 353 295 264 269 274 281 290 291 286 282 286 301 313 312 312 312 309 305 298 294 291 287 283 278 271 268 269 273 279 284 289 296 305 312 316 321 324 327 329 330 328 329 329 323 315 308 302 297 294 287 283 283 281 279 280 282 281
110 160 161 82 324 8 34 24 6 355 7 22 31 38 30 353 343 341 323 317 312 312 324 325 329 347 7 0 337 323 306 279 275 282 283 285 287 283 278 279 291 302 302 301 301 299 296 293 293 293 291 289 283 279 277 276 282 286 289 295 300 304 310 315 320 323 325 328 329 328 329 331 326 317 309 304 299 294 288 285 283 282 283 284 281 280
88 131 128 99 74 99 98 7 38 45 10 15 15 10 8 359 345 323 273 316 314 310 326 319 322 353 354 333 332 313 290 283 280 282 280 284 291 286 277 276 284 293 294 292 291 291 289 286 287 286 284 283 280 279 281 283 289 295 297 301 304 306 311 315 319 322 325 327 328 327 328 330 326 318 311 307 302 297 293 288 283 283 283 280 277 280
74 298 44 113 112 98 138 195 143 126 72 36 17 354 353 348 332 306 245 42 314 303 322 313 315 343 330 321 335 307 278 286 283 278 277 280 285 282 278 279 282 286 288 287 285 286 288 284 282 283 282 280 277 275 281 288 296 303 305 307 309 310 313 316 319 323 324 327 327 325 326 328 325 317 311 308 303 299 294 287 281 279 277 276 279 282
45 162 170 115 123 129 149 150 124 103 59 34 6 359 1 349 332 316 321 348 313 295 303 288 295 337 309 314 330 314 285 288 286 286 286 285 286 283 279 278 279 280 283 285 282 283 289 286 281 282 280 276 273 274 281 292 301 308 312 313 315 316 317 319 321 323 324 325 325 323 324 326 322 314 310 308 304 300 293 286 281 278 276 277 280 282
30 144 178 139 132 143 138 117 66 11 18 13 343 341 346 329 316 306 316 324 306 303 314 295 288 335 309 311 322 319 307 310 309 307 303 301 300 293 282 276 274 275 279 281 280 282 289 287 281 282 280 276 276 276 282 293 302 310 315 317 319 320 320 321 322 322 322 323 322 321 322 323 318 312 309 309 307 303 297 293 290 286 282 278 278 281
25 187 211 184 167 172 184 196 198 19 22 356 312 319 313 296 298 302 311 303 290 293 309 299 302 340 331 321 325 322 315 318 319 314 310 314 317 308 298 289 277 273 275 276 278 281 283 281 280 284 283 282 283 282 285 294 301 308 315 318 321 322 322 322 322 321 321 321 320 319 319 320 314 310 312 312 309 306 304 302 296 290 284 279 280 283
125 159 246 260 242 192 169 137 112 38 0 310 313 323 316 297 293 303 301 293 296 304 287 276 289 316 327 324 324 315 309 313 318 316 315 322 327 324 325 324 298 277 273 275 280 280 276 276 283 290 289 285 286 286 289 296 302 308 313 317 320 322 323 322 321 320 319 319 318 317 317 317 312 312 316 315 313 313 312 305 296 293 291 288 288 286
124 131 109 38 22 44 56 35 7 331 332 321 317 311 299 288 286 289 283 282 301 309 294 276 282 305 318 323 323 317 313 317 321 320 319 319 325 329 327 322 310 292 286 289 290 283 274 273 278 285 288 286 287 290 293 298 303 307 311 315 319 321 322 322 320 319 319 318 317 315 316 314 311 314 318 316 318 319 313 306 303 305 307 304 297 289
131 161 127 103 67 67 81 54 321 351 341 320 309 295 280 280 285 283 273 276 288 289 295 308 304 306 315 322 322 321 321 323 324 323 320 313 311 319 317 314 317 311 306 307 301 292 284 278 273 275 280 283 286 289 293 298 302 305 308 312 317 320 321 321 319 318 318 318 316 313 313 313 311 315 317 317 322 322 314 309 310 310 312 310 300 293
159 212 190 161 167 192 74 5 354 357 348 336 318 291 274 274 279 281 278 280 280 278 290 308 309 309 314 315 317 319 317 318 320 320 319 311 301 304 308 310 312 311 309 305 301 301 301 292 282 278 281 285 290 293 296 299 302 304 306 309 314 317 319 319 318 317 317 317 315 311 311 312 311 313 316 317 320 322 316 313 312 309 311 309 296 289
141 223 224 194 211 242 284 343 347 349 348 343 330 303 279 268 266 276 286 284 280 284 292 299 305 311 312 304 306 310 311 315 314 312 317 316 305 300 304 307 306 305 303 299 299 307 312 305 293 287 289 294 298 300 301 301 303 304 304 306 310 315 317 317 316 316 316 316 313 310 310 312 311 311 312 314 316 320 319 316 311 308 310 305 294 287
153 247 243 215 226 243 272 315 329 342 344 325 313 332 306 276 277 280 287 285 280 286 293 297 307 315 305 294 299 305 307 310 307 305 312 314 306 304 306 306 305 304 305 303 303 308 311 306 297 293 297 300 302 302 302 302 303 302 302 304 308 311 314 315 315 315 315 314 312 311 311 310 308 307 307 308 312 315 316 314 309 306 308 301 293 288
196 245 237 225 242 239 265 295 309 325 319 278 276 330 328 302 296 290 290 288 281 286 294 300 311 313 297 292 299 303 304 305 303 302 304 306 308 309 305 302 303 306 308 306 303 305 306 302 296 295 299 301 301 301 301 302 302 300 300 303 307 309 310 312 313 314 314 313 313 312 311 307 304 302 299 300 306 309 307 307 306 306 304 292 285 286
203 218 216 241 262 239 262 295 308 305 286 234 238 298 296 297 305 300 295 291 285 288 295 298 302 302 297 299 303 304 304 303 301 298 299 302 306 308 307 304 300 302 306 305 301 302 305 304 301 300 301 302 301 300 302 304 303 301 302 305 306 306 307 310 312 313 314 313 313 314 311 305 298 294 292 293 299 303 298 292 292 296 297 288 284 287
199 199 216 244 262 262 281 301 304 289 262 254 283 268 258 292 324 321 308 298 291 291 292 296 301 305 308 308 306 304 303 300 295 292 293 296 297 303 312 312 302 298 303 304 302 304 306 306 305 306 308 309 308 305 305 307 307 306 307 308 306 306 308 310 312 313 314 314 314 314 310 303 294 286 285 287 292 299 297 286 279 283 288 287 283 282
202 205 225 237 252 277 293 297 293 284 298 298 290 267 252 301 327 325 308 298 298 299 298 302 310 310 309 307 305 306 306 299 291 287 285 288 290 298 310 311 302 299 300 302 303 303 304 305 306 310 315 318 318 316 313 313 312 311 311 309 308 308 310 312 314 315 315 316 317 316 311 304 294 285 282 283 286 292 294 289 279 273 274 276 275 271
210 216 228 239 255 271 280 276 280 327 324 293 280 271 267 300 327 328 315 301 300 302 301 302 308 307 307 309 310 312 310 303 298 293 285 285 291 299 306 306 301 298 296 297 299 300 301 304 306 309 314 319 323 324 322 319 316 313 312 311 312 313 314 315 316 316 317 319 320 318 312 305 296 287 284 283 284 287 290 291 286 275 267 266 267 264
221 224 231 246 257 261 277 282 282 303 311 257 245 296 295 312 325 319 312 302 290 292 296 300 306 306 308 315 319 319 317 318 322 308 293 295 305 308 308 303 296 293 293 294 296 298 301 304 307 309 312 315 321 325 324 321 317 314 314 316 318 318 318 318 317 318 320 321 319 315 309 306 300 293 290 288 288 288 288 287 285 279 271 266 264 261
226 229 230 242 256 263 280 291 289 303 306 197 256 310 317 321 318 311 314 304 274 281 308 311 309 308 308 314 322 325 324 330 334 306 292 304 318 315 310 304 295 290 291 295 300 304 307 309 310 310 310 311 315 320 322 321 319 316 317 321 324 324 322 320 320 321 321 317 314 310 305 304 303 301 300 298 296 294 290 285 280 276 271 267 264 261
227 231 231 237 251 257 264 277 284 290 263 236 284 309 311 311 310 310 313 288 245 282 315 318 313 313 307 304 315 325 324 326 321 294 291 304 315 309 306 306 301 296 293 296 304 310 312 313 313 310 309 308 310 313 317 319 319 319 320 323 326 328 326 323 322 322 319 315 312 309 304 304 307 306 305 303 301 299 297 291 282 275 271 268 265 262
227 230 230 233 241 246 253 267 271 266 266 275 289 297 296 297 299 303 308 248 246 287 309 315 314 316 306 296 308 321 317 304 293 286 290 301 305 302 302 302 299 296 293 294 300 306 308 309 308 307 305 303 304 308 311 314 317 319 320 323 327 330 329 326 323 321 319 316 314 310 305 305 308 307 305 303 302 303 303 300 292 284 276 270 266 262
225 228 228 231 240 247 252 261 268 271 279 284 283 283 288 292 289 276 258 260 281 297 308 312 314 315 306 295 298 301 293 288 287 287 290 294 296 296 296 296 294 292 288 289 292 296 300 301 300 300 300 298 298 301 304 308 312 316 319 322 326 329 331 329 325 322 320 318 316 311 306 305 307 307 305 305 306 309 313 312 305 296 285 274 267 263
221 225 228 232 239 247 249 258 273 279 276 273 282 293 295 286 264 254 263 279 292 302 309 313 314 310 301 294 293 293 292 293 294 293 292 291 290 290 290 290 290 288 286 287 289 292 296 297 295 294 294 293 294 296 299 302 306 311 317 321 325 328 331 331 327 324 321 319 316 312 309 307 307 305 304 306 310 316 324 325 317 308 299 286 274 266
223 226 231 232 233 238 241 249 265 272 272 287 304 303 293 270 258 273 286 295 302 306 307 311 312 306 299 295 296 298 300 300 298 294 292 291 289 288 289 290 291 290 290 290 291 293 296 297 294 289 287 289 292 296 298 299 301 305 312 318 323 326 329 331 329 324 320 319 317 314 311 310 308 304 303 306 311 318 325 326 319 313 306 297 284 273
232 231 229 232 240 240 229 229 245 267 284 296 299 293 290 286 284 290 297 299 300 305 308 306 303 301 299 297 298 301 303 302 299 296 294 292 289 288 290 292 293 293 293 293 294 295 297 298 296 291 287 286 289 293 295 296 296 299 305 313 319 323 326 329 329 324 319 317 316 314 311 310 310 305 302 304 310 316 323 323 319 314 307 302 294 280
243 243 234 235 249 253 243 242 259 277 288 292 287 283 287 291 293 298 301 295 291 297 303 301 297 297 297 296 298 301 302 302 302 301 298 296 294 291 290 290 292 293 293 294 296 297 298 298 296 292 289 286 286 289 291 292 292 294 297 303 311 316 320 324 325 323 319 315 315 314 312 310 308 305 302 302 307 314 318 317 318 318 312 306 298 285
253 256 252 248 254 261 264 265 270 278 285 286 284 283 285 289 294 296 300 302 297 294 298 299 295 292 293 295 297 299 301 304 306 304 300 299 297 294 292 292 293 295 296 297 297 298 298 296 294 292 290 287 286 287 288 289 289 289 289 294 302 309 313 317 319 319 317 313 312 312 311 307 306 304 301 299 300 308 312 310 315 326 319 308 298 287
258 262 261 259 259 266 273 277 280 284 286 284 283 284 285 289 293 293 296 302 301 296 296 297 293 290 290 292 294 295 298 304 306 303 299 299 297 296 296 296 296 298 299 298 297 297 297 296 294 291 289 287 285 284 284 286 287 286 285 288 295 302 307 310 312 312 312 310 309 309 308 306 303 301 298 295 295 300 305 303 307 319 317 305 296 284
259 263 261 261 264 269 275 280 284 287 284 279 280 285 290 291 292 293 296 299 299 298 297 294 291 289 288 288 291 293 296 302 305 301 297 297 298 298 298 298 299 300 299 297 297 297 297 296 295 292 289 286 283 282 281 283 284 284 282 284 289 295 300 303 305 306 306 306 305 305 304 303 300 297 294 292 292 293 294 295 298 302 300 293 286 271
258 264 262 262 268 274 279 285 290 288 283 280 281 286 290 292 292 292 293 295 297 298 296 293 290 287 285 286 289 291 295 300 302 300 297 298 301 302 300 299 299 300 298 297 296 297 296 296 296 295 293 288 282 280 280 280 281 281 280 280 284 288 292 296 298 300 300 300 300 301 301 299 296 293 291 289 288 287 284 282 284 283 266 238 225 212
260 263 264 266 271 275 280 286 286 280 277 279 283 286 288 289 289 289 289 292 295 295 294 292 288 285 284 284 285 289 294 298 299 299 300 301 303 302 300 299 300 299 297 296 296 297 297 297 296 297 296 291 283 279 277 278 278 278 277 277 280 283 288 291 292 293 295 294 293 295 296 294 292 290 288 286 285 283 279 270 268 268 254 211 182 167
265 265 266 269 271 272 274 277 276 274 274 274 278 283 286 286 284 284 285 287 291 292 291 290 286 283 283 282 282 284 289 293 295 297 299 302 303 302 299 299 298 297 296 296 297 298 298 298 297 298 297 294 287 280 276 274 275 276 276 276 279 282 284 285 286 288 288 287 287 289 290 290 289 288 286 283 281 280 276 263 252 254 251 226 192 176
Height
3171 3171 3172 3171 3172 3172 3172 3172 3172 3172 3172 3173 3173 3174 3174 3175 3175 3176 3176 3176 3176 3178 3178 3178 3178 3178 3178 3176 3175 3176 3176 3176 3176 3176 3177 3177 3178 3179 3179 3179 3180 3180 3180 3181 3181 3181 3180 3180 3180 3179 3178 3177 3176 3174 3173 3173 3171 3170 3168 3167 3165 3163 3161 3160 3159 3158 3157 3156 3155 3154 3152 3151 3150 3150 3150 3150 3149 3149 3149 3149 3149 3148 3148 3149 3149 3150
3171 3172 3172 3172 3172 3172 3172 3172 3172 3172 3173 3173 3174 3174 3174 3174 3174 3175 3176 3175 3176 3177 3177 3177 3177 3177 3177 3177 3175 3174 3175 3175 3175 3175 3176 3176 3176 3177 3178 3178 3178 3178 3179 3179 3179 3179 3179 3179 3178 3178 3177 3176 3175 3173 3173 3172 3170 3169 3167 3166 3163 3161 3160 3159 3158 3156 3155 3154 3152 3151 3150 3149 3148 3148 3147 3147 3147 3147 3147 3146 3146 3146 3146 3146 3147 3148
3171 3172 3172 3172 3172 3172 3172 3172 3172 3172 3173 3173 3173 3173 3172 3173 3173 3174 3175 3175 3175 3176 3176 3177 3176 3175 3175 3175 3174 3174 3174 3174 3174 3174 3174 3175 3175 3176 3176 3176 3177 3177 3177 3178 3178 3178 3178 3177 3177 3176 3175 3175 3174 3173 3171 3170 3169 3167 3166 3164 3162 3160 3159 3157 3156 3155 3153 3152 3150 3149 3148 3147 3146 3145 3145 3145 3145 3145 3145 3145 3144 3144 3144 3144 3144 3145
3171 3172 3172 3172 3172 3172 3172 3172 3172 3172 3172 3172 3172 3171 3171 3172 3173 3173 3173 3174 3174 3175 3175 3176 3175 3174 3174 3173 3173 3173 3172 3172 3173 3173 3173 3174 3174 3175 3175 3175 3175 3175 3176 3176 3176 3176 3176 3175 3175 3175 3174 3174 3173 3172 3170 3169 3167 3166 3164 3162 3160 3159 3157 3156 3155 3154 3152 3150 3149 3147 3146 3145 3144 3143 3143 3143 3143 3143 3143 3142 3142 3142 3142 3142 3142 3142
3171 3171 3171 3171 3172 3172 3173 3173 3172 3172 3171 3172 3172 3171 3171 3173 3174 3173 3173 3173 3174 3174 3174 3175 3174 3172 3172 3172 3171 3171 3171 3171 3172 3172 3172 3173 3173 3174 3174 3174 3174 3174 3174 3174 3174 3174 3174 3173 3173 3173 3173 3172 3171 3170 3169 3167 3166 3164 3163 3161 3159 3157 3156 3154 3153 3152 3150 3149 3147 3145 3144 3143 3142 3142 3141 3141 3140 3140 3140 3140 3140 3140 3140 3140 3140 3140
3171 3171 3171 3172 3173 3173 3173 3173 3172 3172 3171 3171 3172 3172 3172 3173 3173 3173 3173 3173 3174 3173 3172 3174 3172 3169 3170 3171 3170 3169 3168 3169 3170 3170 3171 3171 3171 3172 3172 3173 3173 3173 3173 3173 3172 3172 3172 3171 3171 3171 3171 3170 3169 3169 3167 3165 3164 3163 3161 3159 3157 3156 3154 3153 3152 3150 3149 3147 3145 3144 3143 3142 3141 3140 3139 3139 3138 3138 3138 3138 3138 3138 3139 3138 3138 3138
3172 3172 3172 3173 3173 3173 3173 3173 3172 3172 3171 3171 3171 3172 3172 3173 3173 3173 3173 3173 3172 3171 3171 3172 3171 3167 3167 3168 3168 3168 3167 3167 3168 3168 3169 3169 3169 3170 3171 3171 3172 3172 3171 3171 3170 3170 3170 3170 3169 3169 3169 3168 3168 3167 3165 3164 3163 3161 3159 3158 3156 3155 3153 3152 3150 3149 3147 3145 3144 3142 3141 3140 3139 3138 3138 3137 3137 3136 3136 3136 3136 3136 3136 3136 3136 3136
3173 3173 3173 3173 3174 3173 3173 3173 3172 3172 3172 3171 3171 3172 3172 3173 3173 3172 3173 3171 3170 3170 3170 3170 3171 3168 3166 3165 3165 3166 3166 3165 3166 3166 3167 3167 3168 3169 3170 3170 3170 3170 3169 3169 3169 3169 3168 3168 3167 3167 3166 3166 3166 3165 3163 3162 3161 3160 3158 3157 3155 3153 3152 3150 3149 3147 3145 3144 3142 3141 3140 3139 3138 3137 3136 3136 3135 3135 3135 3134 3134 3134 3134 3134 3134 3134
3173 3174 3174 3174 3174 3174 3173 3173 3172 3172 3172 3171 3171 3171 3171 3172 3172 3171 3171 3170 3169 3170 3168 3168 3170 3168 3164 3163 3164 3165 3165 3165 3165 3165 3165 3165 3166 3167 3168 3168 3167 3167 3168 3168 3167 3167 3167 3166 3165 3165 3164 3164 3164 3163 3161 3160 3159 3158 3157 3155 3154 3152 3150 3148 3147 3145 3144 3142 3141 3139 3138 3137 3137 3136 3135 3135 3134 3134 3133 3133 3132 3132 3132 3132 3132 3131
3173 3173 3173 3174 3174 3174 3173 3173 3172 3172 3172 3171 3170 3171 3170 3170 3170 3170 3170 3168 3169 3168 3165 3166 3169 3167 3163 3163 3164 3165 3165 3165 3165 3164 3163 3163 3163 3164 3164 3165 3165 3166 3166 3166 3166 3165 3165 3164 3163 3163 3162 3162 3162 3161 3160 3159 3158 3157 3155 3154 3152 3151 3149 3147 3145 3144 3142 3141 3139 3138 3137 3136 3135 3134 3133 3133 3132 3132 3132 3131 3131 3130 3131 3130 3130 3129
3174 3174 3174 3174 3174 3173 3173 3172 3172 3171 3171 3170 3170 3170 3169 3169 3169 3169 3168 3168 3167 3165 3164 3166 3168 3167 3164 3163 3164 3165 3165 3164 3163 3163 3162 3162 3162 3162 3163 3163 3164 3164 3164 3164 3164 3163 3163 3162 3161 3161 3160 3160 3160 3159 3158 3157 3156 3155 3154 3152 3151 3149 3148 3146 3144 3142 3141 3139 3138 3137 3136 3135 3134 3133 3132 3131 3131 3130 3130 3129 3129 3129 3129 3129 3128 3127
3174 3174 3174 3174 3174 3173 3173 3172 3172 3171 3170 3170 3170 3169 3168 3167 3167 3166 3166 3167 3165 3162 3164 3167 3167 3167 3165 3163 3164 3164 3164 3163 3162 3162 3161 3161 3162 3162 3163 3163 3163 3163 3163 3163 3163 3162 3161 3160 3159 3159 3158 3158 3157 3157 3156 3156 3155 3154 3153 3151 3150 3148 3147 3145 3143 3141 3139 3138 3136 3135 3134 3133 3132 3131 3131 3130 3129 3129 3128 3128 3127 3127 3126 3126 3126 3125
3175 3175 3175 3174 3174 3173 3173 3172 3172 3171 3171 3170 3169 3169 3167 3164 3165 3164 3163 3163 3163 3162 3165 3167 3166 3165 3163 3163 3164 3163 3162 3162 3162 3161 3161 3161 3162 3162 3162 3162 3162 3162 3162 3161 3161 3160 3159 3158 3157 3157 3156 3156 3155 3155 3155 3154 3153 3153 3151 3150 3148 3147 3145 3143 3141 3140 3138 3137 3135 3134 3132 3131 3130 3130 3129 3128 3127 3127 3126 3126 3125 3125 3124 3124 3123 3123
3175 3175 3175 3175 3174 3174 3173 3173 3172 3172 3172 3171 3169 3169 3167 3164 3165 3165 3162 3161 3162 3162 3164 3166 3165 3163 3161 3162 3163 3162 3162 3162 3161 3161 3161 3161 3162 3161 3162 3162 3161 3161 3161 3160 3159 3158 3157 3156 3156 3155 3154 3154 3154 3154 3153 3153 3152 3151 3150 3149 3147 3145 3144 3142 3140 3138 3137 3135 3134 3132 3131 3129 3129 3128 3127 3126 3126 3125 3125 3124 3123 3123 3122 3122 3121 3121
3173 3173 3174 3175 3175 3174 3174 3173 3173 3172 3172 3171 3170 3169 3168 3166 3167 3166 3163 3162 3162 3163 3163 3164 3163 3162 3161 3161 3162 3162 3162 3161 3161 3162 3161 3162 3161 3161 3161 3161 3161 3160 3159 3159 3157 3156 3155 3155 3154 3153 3153 3152 3152 3152 3152 3151 3151 3150 3149 3147 3146 3144 3142 3141 3139 3137 3135 3134 3132 3130 3129 3128 3127 3126 3125 3124 3124 3123 3122 3122 3121 3120 3120 3120 3119 3119
3174 3174 3174 3175 3174 3174 3174 3173 3173 3172 3172 3171 3170 3170 3169 3169 3169 3168 3166 3166 3165 3163 3162 3163 3163 3162 3162 3162 3162 3162 3162 3162 3162 3162 3162 3161 3161 3161 3160 3160 3160 3159 3158 3157 3156 3155 3154 3153 3153 3152 3152 3151 3151 3150 3150 3150 3149 3148 3147 3146 3144 3143 3141 3139 3137 3135 3134 3132 3131 3129 3128 3126 3125 3124 3123 3122 3122 3121 3120 3119 3119 3118 3118 3118 3117 3117
3174 3174 3174 3174 3174 3174 3173 3173 3172 3172 3172 3171 3170 3170 3170 3169 3169 3169 3167 3167 3166 3163 3161 3162 3162 3161 3161 3161 3162 3162 3162 3162 3162 3162 3162 3161 3160 3160 3160 3159 3159 3158 3157 3156 3155 3154 3153 3152 3152 3151 3151 3150 3150 3149 3149 3148 3148 3147 3146 3144 3143 3141 3139 3138 3136 3134 3133 3131 3129 3128 3127 3125 3124 3122 3121 3120 3119 3119 3118 3117 3117 3116 3116 3115 3115 3114
3174 3174 3174 3175 3175 3174 3173 3173 3172 3172 3172 3171 3171 3171 3170 3169 3169 3169 3166 3165 3163 3161 3160 3161 3161 3160 3160 3161 3161 3162 3162 3163 3162 3162 3162 3161 3160 3160 3160 3159 3158 3157 3156 3155 3154 3154 3153 3152 3151 3151 3150 3150 3149 3148 3148 3147 3146 3145 3144 3142 3141 3139 3138 3136 3135 3133 3131 3130 3128 3127 3125 3124 3122 3121 3120 3119 3118 3117 3116 3115 3115 3114 3113 3112 3112 3112
3173 3174 3174 3174 3174 3173 3172 3172 3172 3172 3171 3171 3171 3170 3170 3169 3168 3168 3167 3165 3164 3161 3160 3160 3160 3160 3160 3161 3162 3162 3162 3162 3162 3162 3162 3161 3161 3160 3159 3158 3157 3156 3155 3154 3153 3153 3152 3151 3151 3150 3149 3149 3148 3147 3146 3145 3144 3143 3142 3141 3139 3138 3136 3135 3133 3131 3130 3128 3126 3125 3124 3122 3120 3119 3118 3117 3116 3115 3114 3114 3113 3112 3111 3111 3110 3109
3174 3173 3173 3174 3174 3173 3173 3173 3173 3173 3172 3171 3171 3171 3171 3170 3169 3168 3168 3167 3165 3162 3160 3160 3159 3159 3161 3161 3162 3162 3162 3161 3161 3161 3161 3161 3160 3159 3158 3157 3156 3155 3154 3153 3153 3152 3151 3150 3150 3149 3148 3148 3147 3146 3145 3144 3143 3142 3140 3139 3137 3136 3134 3133 3131 3130 3128 3126 3124 3123 3121 3120 3119 3118 3117 3115 3114 3113 3113 3112 3111 3110 3109 3109 3108 3107
3174 3174 3173 3173 3174 3173 3173 3174 3173 3173 3172 3172 3172 3172 3171 3171 3170 3169 3167 3168 3166 3163 3162 3161 3159 3160 3161 3161 3161 3161 3160 3160 3160 3160 3159 3159 3159 3158 3157 3156 3155 3154 3153 3153 3152 3151 3150 3150 3149 3148 3147 3147 3146 3145 3143 3142 3141 3140 3139 3137 3136 3134 3133 3131 3129 3128 3126 3124 3122 3121 3119 3118 3117 3116 3114 3113 3112 3111 3111 3110 3109 3109 3108 3107 3106 3106
3174 3174 3174 3174 3174 3174 3174 3173 3173 3173 3172 3172 3173 3172 3172 3171 3170 3168 3165 3166 3167 3166 3164 3163 3161 3160 3160 3160 3160 3160 3159 3159 3159 3158 3158 3158 3157 3157 3155 3154 3154 3153 3152 3152 3151 3150 3149 3148 3148 3147 3146 3145 3144 3143 3142 3141 3140 3139 3137 3136 3134 3133 3131 3129 3128 3126 3124 3122 3121 3119 3118 3117 3115 3114 3112 3111 3110 3110 3109 3108 3107 3106 3105 3104 3104 3104
3173 3174 3174 3174 3174 3173 3173 3172 3172 3172 3172 3172 3172 3172 3171 3171 3171 3169 3166 3165 3167 3166 3165 3163 3162 3161 3160 3159 3160 3159 3158 3158 3157 3157 3156 3156 3155 3154 3153 3152 3152 3152 3151 3150 3150 3149 3148 3147 3146 3145 3145 3144 3143 3141 3140 3139 3138 3137 3136 3134 3133 3131 3129 3128 3126 3124 3122 3121 3119 3117 3116 3115 3114 3112 3111 3109 3108 3108 3107 3106 3105 3104 3103 3102 3102 3101
3173 3173 3173 3174 3174 3174 3173 3172 3172 3172 3171 3172 3172 3171 3171 3170 3170 3170 3168 3168 3166 3165 3164 3162 3159 3159 3160 3159 3158 3158 3157 3157 3157 3156 3154 3153 3153 3152 3151 3150 3150 3150 3149 3149 3148 3147 3146 3145 3145 3144 3143 3142 3141 3140 3139 3138 3137 3136 3134 3133 3131 3130 3128 3126 3124 3123 3121 3119 3118 3116 3115 3114 3112 3111 3109 3108 3106 3105 3105 3103 3102 3102 3100 3100 3099 3099
3173 3173 3172 3172 3172 3173 3173 3172 3171 3171 3172 3172 3172 3170 3170 3169 3169 3169 3168 3168 3166 3164 3164 3163 3159 3159 3160 3158 3157 3158 3157 3157 3156 3154 3152 3151 3151 3149 3148 3148 3147 3148 3148 3147 3147 3146 3145 3144 3143 3142 3141 3140 3140 3139 3137 3137 3135 3134 3133 3132 3130 3128 3126 3124 3123 3121 3119 3118 3116 3115 3113 3112 3111 3109 3108 3106 3105 3104 3103 3101 3100 3099 3098 3098 3098 3097
3172 3172 3172 3171 3169 3169 3170 3170 3170 3171 3172 3172 3171 3170 3169 3168 3168 3168 3168 3167 3165 3163 3164 3163 3160 3159 3160 3159 3158 3158 3156 3155 3155 3153 3151 3150 3149 3148 3147 3147 3146 3146 3146 3146 3145 3144 3143 3142 3141 3140 3140 3139 3138 3137 3136 3135 3134 3133 3131 3130 3128 3126 3125 3123 3121 3119 3118 3116 3115 3114 3112 3110 3109 3107 3106 3104 3103 3102 3101 3099 3098 3097 3097 3097 3097 3096
3171 3172 3171 3171 3170 3169 3170 3170 3170 3171 3171 3171 3170 3169 3169 3168 3167 3168 3167 3166 3164 3163 3162 3162 3160 3159 3159 3158 3157 3156 3155 3154 3153 3151 3150 3149 3149 3148 3147 3146 3146 3146 3145 3145 3144 3143 3142 3141 3140 3139 3138 3137 3137 3136 3135 3134 3132 3131 3130 3128 3127 3125 3123 3121 3119 3118 3116 3115 3114 3112 3110 3109 3107 3106 3104 3103 3102 3100 3099 3098 3097 3096 3096 3096 3095 3095
3172 3172 3171 3171 3171 3171 3171 3171 3170 3170 3170 3170 3169 3168 3168 3167 3166 3166 3166 3165 3164 3163 3161 3159 3159 3158 3157 3157 3156 3154 3153 3152 3151 3150 3149 3148 3148 3147 3146 3146 3146 3145 3144 3144 3142 3141 3140 3140 3139 3138 3137 3136 3135 3134 3133 3132 3131 3130 3128 3127 3125 3123 3121 3119 3118 3116 3114 3113 3112 3110 3109 3107 3105 3104 3102 3101 3100 3099 3098 3096 3096 3095 3095 3094 3094 3093
3171 3172 3171 3171 3171 3170 3170 3170 3170 3170 3169 3168 3168 3167 3166 3166 3165 3165 3165 3164 3164 3163 3160 3158 3158 3157 3155 3155 3155 3153 3152 3151 3150 3148 3147 3147 3146 3146 3145 3145 3145 3144 3144 3143 3141 3140 3139 3138 3137 3137 3136 3135 3134 3133 3132 3131 3129 3128 3126 3125 3123 3121 3119 3118 3116 3114 3113 3112 3110 3108 3107 3105 3104 3103 3101 3100 3099 3098 3097 3096 3095 3094 3094 3093 3093 3092
3170 3171 3170 3170 3170 3170 3169 3169 3169 3168 3168 3167 3167 3166 3165 3165 3164 3164 3164 3163 3162 3161 3160 3159 3157 3155 3154 3154 3153 3152 3150 3149 3149 3148 3146 3145 3145 3144 3144 3144 3143 3143 3142 3141 3139 3138 3137 3137 3136 3135 3135 3134 3133 3132 3130 3129 3128 3126 3125 3123 3121 3119 3118 3116 3114 3113 3111 3110 3108 3107 3105 3103 3102 3101 3100 3099 3098 3097 3096 3095 3094 3094 3093 3092 3092 3092
3170 3170 3169 3169 3170 3169 3168 3168 3168 3167 3167 3166 3166 3165 3164 3164 3163 3163 3162 3162 3161 3160 3159 3158 3156 3155 3154 3153 3152 3151 3149 3148 3147 3146 3145 3144 3143 3143 3142 3142 3141 3141 3140 3139 3138 3137 3136 3135 3134 3134 3133 3132 3131 3130 3129 3127 3126 3125 3123 3121 3119 3118 3116 3114 3113 3111 3110 3108 3106 3105 3103 3102 3101 3100 3099 3099 3097 3096 3095 3094 3094 3093 3092 3092 3091 3091
3169 3169 3168 3169 3169 3168 3167 3167 3167 3166 3166 3165 3165 3164 3163 3163 3162 3161 3161 3160 3159 3159 3158 3157 3156 3155 3153 3151 3151 3150 3148 3147 3146 3145 3144 3143 3142 3141 3140 3140 3139 3139 3138 3137 3136 3135 3135 3134 3133 3133 3132 3131 3129 3128 3127 3125 3124 3123 3121 3119 3118 3116 3114 3112 3111 3109 3108 3106 3105 3103 3101 3100 3099 3099 3098 3098 3097 3095 3094 3093 3093 3092 3092 3091 3090 3090
3168 3168 3168 3169 3168 3167 3167 3166 3166 3166 3164 3163 3163 3163 3162 3161 3161 3160 3159 3159 3158 3157 3157 3156 3156 3154 3152 3150 3149 3148 3147 3146 3145 3143 3142 3141 3140 3140 3139 3138 3138 3137 3136 3135 3134 3134 3133 3132 3132 3131 3130 3129 3127 3126 3125 3124 3122 3121 3119 3118 3116 3114 3112 3111 3109 3108 3106 3104 3103 3101 3100 3099 3098 3097 3097 3096 3095 3094 3093 3093 3092 3092 3091 3091 3090 3089
3166 3167 3168 3168 3167 3167 3166 3165 3165 3164 3162 3161 3161 3161 3161 3160 3160 3159 3158 3157 3157 3156 3155 3155 3154 3152 3151 3150 3148 3147 3146 3144 3143 3142 3141 3140 3139 3138 3137 3136 3136 3135 3134 3134 3133 3132 3131 3131 3130 3129 3128 3127 3125 3124 3123 3122 3120 3119 3117 3116 3114 3113 3111 3109 3107 3106 3104 3102 3101 3099 3098 3097 3096 3096 3095 3095 3094 3093 3092 3092 3091 3091 3090 3090 3089 3089
3165 3166 3167 3166 3166 3166 3165 3164 3164 3162 3160 3160 3160 3159 3159 3159 3158 3158 3157 3156 3155 3154 3154 3153 3152 3151 3150 3148 3147 3145 3144 3143 3142 3141 3140 3138 3138 3137 3136 3135 3134 3134 3133 3132 3131 3131 3130 3129 3128 3127 3126 3125 3124 3122 3121 3120 3118 3117 3116 3114 3113 3111 3109 3107 3106 3104 3102 3101 3099 3098 3096 3095 3095 3094 3094 3093 3092 3091 3091 3090 3090 3090 3089 3089 3088 3088
3164 3165 3165 3165 3165 3165 3163 3163 3162 3160 3159 3159 3158 3158 3158 3158 3157 3156 3156 3155 3154 3153 3152 3152 3151 3150 3148 3147 3145 3144 3143 3142 3140 3139 3138 3137 3136 3135 3135 3134 3133 3132 3132 3131 3130 3129 3128 3127 3126 3125 3124 3123 3122 3121 3119 3118 3117 3116 3114 3113 3111 3109 3107 3106 3104 3102 3101 3100 3098 3096 3095 3094 3093 3093 3092 3091 3090 3090 3089 3089 3088 3088 3088 3087 3087 3087
3163 3164 3164 3164 3164 3163 3162 3161 3160 3159 3158 3158 3157 3157 3157 3156 3156 3155 3155 3154 3153 3151 3151 3150 3149 3148 3147 3145 3144 3143 3141 3140 3140 3139 3137 3136 3135 3134 3133 3132 3132 3131 3130 3129 3129 3127 3126 3125 3124 3123 3122 3121 3120 3119 3118 3117 3116 3114 3113 3111 3109 3108 3106 3104 3103 3101 3099 3098 3097 3095 3094 3093 3092 3091 3090 3089 3088 3088 3087 3087 3087 3086 3086 3086 3086 3085
3161 3162 3163 3163 3162 3161 3161 3160 3158 3157 3157 3156 3156 3155 3155 3155 3154 3154 3153 3152 3151 3150 3149 3148 3147 3146 3145 3144 3143 3142 3140 3140 3141 3139 3136 3134 3134 3133 3132 3131 3130 3129 3129 3128 3127 3126 3125 3124 3123 3122 3120 3119 3118 3118 3116 3115 3114 3113 3112 3110 3108 3106 3105 3103 3101 3100 3098 3097 3096 3094 3093 3092 3091 3090 3089 3088 3087 3086 3085 3085 3085 3084 3084 3084 3084 3084
3160 3160 3161 3161 3161 3160 3160 3159 3158 3157 3156 3155 3155 3154 3153 3153 3153 3152 3152 3150 3149 3148 3147 3146 3145 3144 3143 3143 3142 3141 3140 3140 3141 3138 3135 3133 3133 3131 3131 3130 3128 3128 3127 3126 3125 3125 3123 3122 3121 3120 3119 3118 3117 3116 3115 3114 3113 3112 3110 3109 3107 3105 3104 3102 3100 3098 3097 3096 3095 3093 3092 3091 3090 3089 3087 3086 3085 3084 3083 3083 3083 3082 3082 3082 3082 3082
3158 3159 3159 3159 3159 3159 3159 3158 3156 3155 3155 3154 3153 3153 3152 3152 3152 3152 3151 3148 3147 3146 3145 3144 3143 3143 3142 3141 3140 3140 3140 3140 3139 3136 3133 3132 3131 3130 3129 3128 3127 3126 3126 3125 3124 3123 3122 3121 3119 3118 3117 3116 3115 3114 3113 3112 3111 3110 3109 3107 3106 3104 3103 3101 3099 3097 3096 3095 3094 3092 3091 3090 3089 3087 3086 3085 3084 3083 3082 3081 3081 3081 3081 3081 3081 3080
3156 3157 3157 3157 3158 3157 3157 3156 3155 3153 3153 3152 3151 3151 3150 3150 3150 3150 3149 3146 3145 3144 3143 3142 3141 3140 3140 3139 3138 3138 3138 3136 3134 3133 3131 3131 3130 3129 3127 3126 3126 3125 3124 3123 3122 3121 3120 3119 3118 3116 3115 3114 3113 3112 3111 3110 3109 3108 3107 3106 3104 3103 3101 3100 3098 3096 3095 3094 3092 3091 3090 3089 3087 3086 3085 3084 3083 3082 3081 3080 3080 3079 3079 3079 3079 3079
3155 3155 3155 3155 3155 3155 3155 3154 3153 3151 3150 3149 3149 3149 3148 3149 3149 3148 3146 3144 3144 3142 3141 3140 3139 3138 3137 3137 3136 3136 3135 3133 3132 3130 3129 3128 3128 3127 3126 3124 3124 3123 3122 3121 3120 3119 3117 3116 3115 3114 3113 3112 3111 3111 3110 3109 3107 3106 3105 3104 3103 3101 3100 3098 3097 3095 3094 3093 3091 3090 3089 3088 3086 3085 3084 3083 3082 3081 3080 3079 3078 3078 3077 3077 3077 3077
3153 3153 3153 3152 3153 3153 3153 3152 3152 3149 3147 3147 3147 3146 3146 3147 3146 3144 3143 3142 3141 3140 3139 3138 3137 3136 3135 3134 3134 3133 3131 3130 3129 3128 3127 3126 3125 3124 3123 3122 3121 3121 3120 3118 3117 3116 3115 3114 3113 3112 3111 3110 3109 3109 3108 3107 3106 3105 3103 3102 3101 3100 3098 3097 3096 3094 3093 3092 3090 3089 3088 3087 3086 3084 3083 3082 3081 3080 3079 3078 3077 3077 3077 3076 3075 3075
3150 3150 3151 3150 3150 3150 3150 3150 3149 3147 3145 3145 3145 3145 3144 3143 3143 3141 3141 3140 3139 3137 3136 3136 3135 3133 3133 3132 3131 3130 3129 3128 3127 3126 3125 3124 3123 3122 3121 3120 3119 3118 3117 3116 3115 3114 3113 3112 3111 3110 3109 3108 3107 3107 3106 3105 3104 3103 3102 3101 3100 3098 3097 3096 3095 3093 3092 3091 3089 3088 3087 3086 3085 3084 3082 3081 3080 3079 3078 3077 3076 3076 3075 3075 3075 3074
3147 3147 3148 3148 3147 3146 3147 3147 3145 3144 3143 3143 3143 3142 3141 3141 3140 3139 3138 3138 3137 3135 3134 3134 3133 3131 3130 3130 3129 3128 3127 3126 3125 3124 3123 3122 3121 3120 3119 3118 3117 3116 3115 3114 3112 3111 3110 3110 3109 3108 3107 3106 3105 3104 3104 3103 3102 3101 3100 3099 3098 3097 3096 3094 3093 3092 3091 3089 3088 3087 3086 3085 3084 3083 3081 3080 3079 3078 3078 3076 3075 3075 3075 3074 3074 3073
3144 3144 3145 3145 3144 3143 3143 3143 3143 3142 3141 3140 3140 3140 3139 3138 3138 3137 3136 3135 3134 3133 3132 3131 3130 3129 3128 3128 3127 3126 3125 3124 3122 3121 3121 3120 3119 3118 3117 3116 3115 3113 3112 3111 3110 3109 3108 3107 3106 3105 3105 3104 3103 3102 3101 3101 3100 3099 3098 3097 3096 3095 3094 3093 3092 3091 3089 3088 3087 3086 3085 3084 3083 3082 3081 3080 3079 3078 3077 3076 3075 3074 3074 3073 3073 3072
3142 3142 3142 3142 3141 3141 3140 3140 3140 3140 3139 3138 3137 3137 3137 3136 3135 3134 3133 3132 3132 3131 3130 3129 3128 3127 3126 3125 3125 3124 3123 3122 3120 3119 3118 3118 3117 3116 3115 3114 3112 3111 3110 3109 3107 3106 3105 3105 3104 3103 3102 3101 3101 3100 3099 3098 3098 3097 3096 3095 3094 3094 3093 3091 3090 3089 3088 3087 3086 3085 3084 3083 3082 3081 3080 3079 3078 3077 3076 3076 3075 3073 3073 3073 3072 3072
3139 3140 3139 3139 3139 3138 3138 3137 3137 3137 3136 3135 3135 3134 3134 3133 3132 3131 3131 3130 3129 3128 3127 3126 3125 3124 3124 3123 3122 3121 3120 3119 3118 3117 3116 3115 3114 3113 3112 3111 3110 3109 3107 3106 3105 3104 3103 3102 3101 3100 3100 3099 3098 3097 3096 3096 3095 3095 3094 3093 3092 3092 3091 3090 3089 3088 3086 3085 3084 3083 3082 3082 3081 3080 3079 3078 3077 3076 3075 3075 3074 3073 3072 3072 3072 3071
3137 3137 3136 3136 3136 3136 3135 3135 3135 3134 3133 3132 3132 3132 3131 3130 3130 3129 3128 3127 3126 3125 3124 3123 3123 3122 3121 3121 3120 3119 3118 3117 3116 3115 3114 3113 3112 3111 3109 3108 3107 3106 3105 3103 3102 3101 3100 3099 3098 3098 3097 3096 3095 3094 3094 3093 3093 3092 3092 3091 3090 3089 3089 3088 3087 3086 3085 3084 3083 3082 3081 3080 3079 3079 3078 3077 3076 3075 3075 3074 3074 3073 3072 3071 3071 3071
3134 3134 3133 3133 3133 3133 3132 3133 3132 3131 3131 3130 3128 3128 3128 3128 3127 3126 3125 3124 3123 3122 3122 3121 3120 3119 3118 3118 3117 3116 3115 3115 3113 3112 3111 3110 3109 3108 3107 3105 3104 3103 3102 3101 3100 3098 3097 3096 3095 3095 3094 3093 3092 3092 3091 3091 3090 3090 3090 3089 3088 3087 3087 3086 3085 3084 3083 3082 3082 3081 3080 3079 3078 3077 3077 3076 3075 3074 3074 3073 3073 3073 3072 3071 3071 3071
3130 3131 3131 3130 3130 3130 3130 3130 3129 3127 3128 3127 3125 3125 3125 3125 3124 3123 3122 3121 3121 3120 3119 3118 3117 3116 3116 3115 3114 3113 3113 3112 3111 3110 3108 3107 3106 3105 3104 3102 3101 3100 3099 3098 3097 3096 3095 3093 3092 3092 3091 3090 3089 3089 3088 3088 3087 3087 3087 3086 3086 3085 3085 3084 3083 3083 3082 3081 3080 3079 3079 3078 3077 3076 3075 3075 3074 3073 3073 3072 3072 3072 3072 3071 3071 3071